Regional Weather Roundup
Issued by NWS Grand Forks, ND

Home | Current Version | Previous Version | Graphics & Text | Print | Product List | Glossary On
Versions: 1 2 3 4 5 6 7 8 9 10 11 12 13 14 15 16 17 18 19 20 21 22 23 24 25 26 27 28 29 30 31 32 33 34 35 36 37 38 39 40 41 42 43 44 45 46 47 48 49 50
000
ASUS43 KFGF 241131
RWRFGF
PRAIRIE TO PINES  WEATHER ROUNDUP
NATIONAL WEATHER SERVICE EASTERN NORTH DAKOTA/GRAND FORKS ND
500 AM CST FRI NOV 24 2017

 **SATELLITE DATA USED TO AUGMENT SKY COVER AT AUTOMATED STATIONS**
 *****  WEATHER ACROSS EASTERN NORTH DAKOTA  *****

CITY           SKY/WX    TMP DP  RH WIND       PRES   REMARKS
GRAND FORKS    MOCLDY    39  35  86 SE7       29.21F
GRAND FRKS AFB MOCLDY    41  36  81 NW5       29.28R
GRAND FRKS NWS   N/A     37 N/A N/A S5          N/A
DEVILS LAKE    MOCLDY    40  36  86 W10       29.30R
FARGO          FAIR      45  37  73 SW9       29.28S
WAHPETON ARPT  NOT AVBL
$$

 ***** WEATHER ACROSS CENTRAL AND WESTERN NORTH DAKOTA  *****

CITY           SKY/WX    TMP DP  RH WIND       PRES   REMARKS
BISMARCK       CLOUDY    51  37  58 W8        29.41R
MINOT          CLOUDY    43  35  73 W9        29.35R
JAMESTOWN      FAIR      51  37  58 W14       29.31S
MINOT AFB      CLOUDY    39  35  88 W9        29.32S
GARRISON         N/A     47  42  83 W12       29.37R
WILLISTON      CLOUDY    41  37  86 NW8       29.43R
DICKINSON      LGT RAIN  49  44  83 W18       29.46R
HETTINGER      MOCLDY    52  32  46 NW15      29.48R
$$

 *****  OTHER AIRPORT OBSERVATIONS IN OUR AREA  *****

CITY           SKY/WX    TMP DP  RH WIND       PRES   REMARKS
WALHALLA       FAIR      39  39 100 NW6       29.25F
GRAFTON AIRPOR FAIR      37  36  93 W8        29.30R
VALLEY CITY AR FAIR      46  37  71 W15       29.32R
CANDO          PTSUNNY   37  37 100 W6        29.32R
CAVALIER APRT  PTSUNNY   41  36  81 NW10      29.26R
GWINNER          N/A     43  37  81 SW12      29.33S
SHEYENNE NWR     N/A     42  37  83 W7        29.95S
ROLLA          PTSUNNY   39  37  93 NW9       29.28S
 ***** THE ABOVE OBSERVATIONS ARE NON NWS ARE NOT QUALITY
       CONTROLLED AND MAY MIS-REPORT RAIN FOR SNOW...
$$

  *****  WEATHER ACROSS NORTHERN MINNESOTA  *****

CITY           SKY/WX    TMP DP  RH WIND       PRES   REMARKS
FLAG ISLAND    FAIR      41  36  81 W8        29.18S
WARROAD        FAIR      41  37  87 W13       29.22R
ROSEAU         FAIR      41  36  81 W9        29.22F
HALLOCK        MOCLDY    39  36  87 NW10      29.26R
THF RVR FALLS  FAIR      40  35  83 SW7       29.26R
BAUDETTE       FAIR      45  36  70 W10G20    29.19R
WASKISH        FAIR      41  36  81 SW12      29.22F
CROOKSTON      FAIR      37  34  87 S7        29.26F
STEPHEN NDAWN    N/A     37  34  87 NW5         N/A
GREENBUSH NDAW   N/A     36  34  93 W3          N/A
$$
  *****  WEATHER ACROSS CENTRAL AND WEST MINNESOTA  *****

CITY           SKY/WX    TMP DP  RH WIND       PRES   REMARKS
FOSSTON        FAIR      39  36  87 SW5       29.28R
BEMIDJI        FAIR      41  36  81 SW6       29.25F
PARK RAPIDS    MOCLDY    41  36  82 S6        29.28F
ELBOW LAKE     PTSUNNY   40  36  84 SE7       29.33S
WADENA         FAIR      41  36  81 W7        29.30S
DETROIT LAKES  FAIR      45  36  70 SW5       29.31S
MOORHEAD       FAIR      37  34  87 CALM      29.29F
FERGUS FALLS   MOCLDY    39  36  87 S6        29.33F
MORRIS MN      FAIR      43  36  75 SW5       29.32S
STAPLES        FAIR      39  36  87 SW5       29.30F
$$
  *****  WEATHER ELSEWHERE ACROSS MINNESOTA  *****

CITY           SKY/WX    TMP DP  RH WIND       PRES   REMARKS
DULUTH         MOCLDY    40  34  79 SW20      29.28F
INTRNTL FALLS  CLOUDY    43  35  73 W7        29.18S
ELY            FAIR      39  34  81 SW7       29.21S
CLOQUET        FAIR      39  30  70 SW13G18   29.30F
WHEATON        FAIR      52  36  54 W10       29.34S
BRAINERD       FAIR      41  35  79 S9        29.31F
HIBBING        FAIR      37  33  85 S6        29.27F
ALEXANDRIA     FAIR      45  37  73 SW10      29.33F
SAINT CLOUD    FAIR      39  35  86 S8        29.36F
MINNEAPOLIS    FAIR      47  38  71 S8        29.43F
$$

  *****  WEATHER ACROSS SOUTH DAKOTA  *****

CITY           SKY/WX    TMP DP  RH WIND       PRES   REMARKS
SIOUX FALLS    FAIR      47  41  80 SW8       29.45F
BROOKINGS      FAIR      36  33  89 SE9       29.43F
WATERTOWN      FAIR      34  33  96 CALM      29.40F
HURON          FAIR      36  34  92 SE6       29.41F
SISSETON         N/A     53  38  56 SW24      29.30F
ABERDEEN       FAIR      40  36  86 SW8       29.37F
MITCHELL       FAIR      49  38  65 W13       29.44F
PIERRE         FAIR      46  37  71 W10       29.44F
MOBRIDGE       FAIR      50  35  56 MISG      29.39R
RAPID CITY     FAIR      51  30  44 SW8       29.54F
$$

  *****  SOME WEATHER IN NEARBY STATES *****

CITY           SKY/WX    TMP DP  RH WIND       PRES   REMARKS
GLASGOW MT     FAIR      40  36  86 NW13      29.53R
GREAT FALLS MT FAIR      42  18  37 W21G33    29.71R
CHEYENNE WY    FAIR      55  28  35 W22G38    29.84F
SCOTTSBLUFF NE FAIR      61  34  36 W23G32    29.71F
OMAHA NE       FAIR      44  37  76 S10       29.57F
DES MOINES IA  FAIR      50  36  58 S16       29.61F
DAVENPORT IA   FAIR      40  31  70 S10       29.75F
CHICAGO IL     FAIR      36  27  69 S8        29.80S
EAU CLAIRE WI  FAIR      43  33  68 S9        29.46F
LA CROSSE WI   FAIR      43  33  68 SE9       29.56F
$$

  *****  SOME NATIONAL WEATHER *****

CITY           SKY/WX    TMP DP  RH WIND       PRES   REMARKS
LA GUARDIA NY  FAIR      38  21  50 W3        30.04R
RALEIGH NC     FAIR      27  26  96 CALM      30.07S
ATLANTA GA     FAIR      43  38  82 NE6       30.03R
NEW ORLEANS LA FAIR      42  38  85 CALM      30.03S
OKLAHOMA CITY  FAIR      42  33  70 S9        29.86F
ALBUQUERQUE NM FAIR      44  28  53 N3        30.12F
SALT LAKE CITY FAIR      49  45  86 NW6       29.96S
LOS ANGELES CA FAIR      61  56  83 CALM      29.90F
BOISE ID       RAIN      51  48  89 SW3       29.95R FOG
SEATTLE WA     CLOUDY    47  43  86 S10       30.04R
$$

*** WEATHER ACROSS MANITOBA...SASKATCHEWAN AND ONTARIO ***
                ***ONTARIO***

CITY           SKY/WX    TMP DP  RH WIND       PRES   REMARKS
GERALDTON      CLOUDY    23  21  93 CALM      29.17F
THUNDER BAY    CLOUDY    30  30 100 W3        29.17F
SIOUX LOOKOUT  CLOUDY    34  32  93 W8        29.10R
TORONTO        MOCLDY    36  27  69 S7        29.87F
BIG TROUT LK   LGT SNOW   9   7  92 SE9       29.14F WCI  -5
PICKLE LAKE    LGT SNOW  19  18  93 S6        29.05  FOG     WCI  11
DRYDEN         CLOUDY    36  34  93 W10       29.11S
KENORA         CLOUDY    36  34  93 W8        29.16R
$$
                *** MANITOBA***

CITY           SKY/WX    TMP DP  RH WIND       PRES   REMARKS
BRANDON        CLOUDY    34  32  93 W10       29.26R
DAUPHIN        CLEAR     36  32  87 W17       29.21F
ISLAND LAKE    FLURRIES  10   9  92 CALM      29.12S
PILOT MOUND      N/A     37  34  87 W6          N/A
THE PAS        CLOUDY    23  18  80 NW20      29.16R WCI   8
THOMPSON       LGT SNOW   3  -2  78 N7        29.19R WCI  -9
WINNIPEG       MOCLDY    34  32  93 NW6       29.24S
LYNN LAKE      FLURRIES   0  -2  92 N5        29.25R WCI -10
CHURCHILL      FLURRIES  -6  -9  84 SW3       29.37S
GILLAM         LGT SNOW   3  -2  78 NE7       29.24  WCI  -9
$$
                ***SASKATCHEWAN***

CITY           SKY/WX    TMP DP  RH WIND       PRES   REMARKS
ESTEVAN        LGT RAIN  37  36  93 W14       29.38R
KINDERSLEY     CLEAR     32  28  86 W15       29.49R WCI  22
LLOYDMINSTER   CLEAR     34  27  75 W17       29.41R WCI  23
PRINCE ALBERT  PTCLDY    30  27  86 W12       29.32R WCI  21
REGINA         MOCLDY    36  34  93 W15G23    29.41R
YORKTON        PTCLDY    36  30  80 W13       29.29R
N. BATTLEFORD  CLEAR     32  27  80 W15       29.42R WCI  22
LA RONGE       FLURRIES  14   7  73 W18G25    29.32R WCI  -3
SASKATOON      CLEAR     30  27  86 SW15      29.40R WCI  19
SWIFT CURRENT    N/A     34  32  93 W14       29.49R WCI  24
$$
NOTE: THESE ARE AUTOMATED STATIONS WITH LIMITED QUALITY CONTROL
      "FAIR" INDICATES FEW OR NO CLOUDS BELOW 12,000 FEET WITH NO
      SIGNIFICANT WEATHER AND/OR OBSTRUCTIONS TO VISIBILITY.
      SKY/WX - SKY CONDITION AND SIGNIFICANT WEATHER.
      TMP - AIR TEMPERATURE.    DP   - DEWPOINT TEMPERATURE.
      RH  - RELATIVE HUMIDITY.  PRES - PRESSURE.
      HX  - HEAT INDEX.         WCI  - WIND CHILL INDEX.
$




USA.gov is the U.S. government's official web portal to all federal, state and local government web resources and services.